GFSNW_prec_precacc_132.txt.gz
Total_Precipitation_Accumulation
0.49 0.47 0.43 0.41 0.42 0.70 1.30 1.42 1.06 0.32 0.29 0.68 0.45 0.15 0.00 0.00 0.00 0.00 0.00 0.00 0.00 0.00 0.01 0.01 0.01 0.02 0.01 0.00 0.00 0.00 0.00 0.03 0.02 0.01 0.02 0.07 0.16 0.34 0.59 0.83 0.54 0.26 0.18 0.08
0.53 0.52 0.54 0.57 0.52 0.88 1.33 1.86 0.87 0.99 0.72 0.77 0.40 0.14 0.05 0.01 0.00 0.00 0.01 0.01 0.01 0.00 0.00 0.04 0.01 0.01 0.00 0.00 0.00 0.04 0.09 0.15 0.15 0.03 0.10 0.15 0.15 0.11 0.24 0.42 0.46 0.34 0.46 0.17
0.69 0.60 0.67 0.63 0.78 1.17 1.91 2.02 1.28 1.48 1.20 0.34 0.22 0.32 0.25 0.10 0.03 0.01 0.02 0.01 0.02 0.05 0.07 0.08 0.10 0.09 0.04 0.03 0.02 0.03 0.18 0.09 0.10 0.09 0.11 0.17 0.09 0.04 0.07 0.19 0.38 0.21 0.20 0.15
0.81 0.77 0.84 0.81 0.94 1.55 3.31 3.15 0.99 0.54 0.67 0.48 0.23 0.17 0.21 0.20 0.15 0.06 0.06 0.06 0.13 0.21 0.19 0.13 0.14 0.16 0.16 0.06 0.05 0.07 0.21 0.21 0.05 0.02 0.01 0.01 0.02 0.01 0.01 0.03 0.08 0.27 0.14 0.17
0.89 0.91 1.10 1.08 1.31 2.26 4.07 3.00 0.68 0.37 0.19 0.17 0.26 0.30 0.18 0.10 0.11 0.27 0.26 0.22 0.16 0.22 0.35 0.40 0.30 0.32 0.45 0.34 0.27 0.34 0.34 0.38 0.17 0.09 0.00 0.00 0.00 0.00 0.00 0.01 0.01 0.01 0.00 0.02
0.93 0.91 1.17 1.34 1.72 3.20 4.71 2.08 0.45 0.55 0.45 0.25 0.28 0.27 0.24 0.21 0.39 0.25 0.22 0.52 0.58 0.30 0.29 0.29 0.17 0.18 0.24 0.34 0.48 0.63 0.67 0.48 0.33 0.16 0.02 0.06 0.07 0.01 0.02 0.08 0.03 0.01 0.02 0.03
0.85 0.90 1.11 1.43 1.82 2.72 2.98 1.23 0.62 1.09 0.76 0.29 0.16 0.08 0.16 0.28 0.24 0.27 0.12 0.15 0.23 0.14 0.13 0.24 0.16 0.13 0.13 0.07 0.21 0.46 0.54 0.58 0.62 0.33 0.22 0.32 0.12 0.04 0.03 0.11 0.06 0.04 0.06 0.04
0.75 0.86 1.07 1.31 1.49 1.83 2.10 1.44 1.01 1.05 0.66 0.22 0.15 0.17 0.18 0.06 0.04 0.05 0.04 0.04 0.07 0.19 0.24 0.47 0.52 0.41 0.34 0.22 0.12 0.06 0.13 0.33 0.64 0.47 0.30 0.16 0.07 0.09 0.13 0.16 0.25 0.18 0.15 0.09
0.71 0.72 0.98 1.07 1.22 1.45 1.86 1.64 1.17 1.36 1.28 0.27 0.13 0.16 0.10 0.10 0.11 0.15 0.12 0.06 0.13 0.38 0.40 0.53 0.54 0.56 0.49 0.46 0.47 0.15 0.13 0.26 0.75 0.62 0.50 0.21 0.19 0.16 0.07 0.13 0.47 0.68 0.36 0.31
0.77 0.65 0.70 0.94 0.98 1.24 1.71 1.87 1.30 1.89 1.70 0.30 0.15 0.34 0.23 0.11 0.18 0.34 0.26 0.32 0.35 0.53 0.64 0.56 0.33 0.22 0.21 0.32 0.71 0.96 0.65 0.77 0.87 0.62 1.04 0.50 0.17 0.07 0.09 0.50 1.07 0.82 0.73 0.91
0.67 0.56 0.58 0.76 0.86 1.06 1.58 1.70 1.33 1.69 1.81 0.50 0.28 0.21 0.23 0.22 0.28 0.40 0.40 0.63 0.61 0.69 0.75 0.47 0.25 0.28 0.27 0.31 0.30 1.03 1.44 1.44 1.06 0.97 1.07 0.69 0.21 0.40 0.85 0.93 0.52 0.66 1.14 1.37
0.63 0.55 0.59 0.63 0.71 0.96 1.60 1.74 1.27 1.34 2.20 1.13 0.48 0.21 0.11 0.13 0.07 0.20 0.30 0.42 0.51 0.89 1.05 0.85 0.58 0.36 0.33 0.24 0.37 0.89 1.28 1.20 1.23 0.92 0.76 0.49 0.35 0.59 0.74 0.62 0.67 0.77 0.71 0.76
0.63 0.59 0.62 0.71 0.70 0.97 1.59 1.56 1.23 1.93 2.92 1.70 0.64 0.28 0.07 0.14 0.08 0.15 0.44 0.14 0.08 0.25 0.63 1.06 0.75 0.53 0.33 0.33 0.36 0.62 0.91 0.94 1.38 0.96 0.62 0.36 0.53 0.39 0.48 0.72 0.67 0.41 0.42 0.41
0.68 0.61 0.65 0.70 0.96 1.15 1.49 1.64 1.60 2.03 2.95 1.81 0.75 0.39 0.24 0.12 0.15 0.06 0.23 0.19 0.25 0.45 0.68 1.20 0.93 0.58 0.28 0.16 0.18 0.31 0.95 0.89 0.91 1.29 1.43 0.89 0.55 0.56 0.54 0.52 0.56 0.58 0.34 0.24
0.70 0.67 0.73 0.97 1.24 1.55 1.91 1.73 1.55 1.63 2.07 1.51 0.65 0.45 0.30 0.27 0.24 0.16 0.25 0.49 0.63 0.91 0.97 0.99 0.53 0.21 0.27 0.18 0.16 0.52 0.32 0.34 0.70 1.14 1.24 1.53 1.11 1.26 0.97 0.70 0.40 0.29 0.17 0.23
0.85 0.84 0.98 1.43 1.75 2.21 3.96 4.73 2.42 1.39 1.61 2.76 1.26 0.52 0.40 0.49 0.44 0.37 0.19 0.30 0.83 1.30 1.32 0.66 0.28 0.15 0.58 0.68 0.27 0.10 0.02 0.14 0.44 0.45 0.57 0.85 1.06 0.74 0.36 0.34 0.39 0.20 0.08 0.07
0.97 1.06 1.44 1.73 2.11 3.14 4.12 2.73 1.55 1.06 1.75 3.66 2.15 0.81 0.47 0.69 0.58 0.44 0.36 0.35 0.62 1.03 1.65 1.12 0.40 0.22 0.84 0.82 0.26 0.07 0.01 0.04 0.10 0.09 0.13 0.25 0.24 0.25 0.18 0.15 0.21 0.13 0.05 0.06
1.30 1.50 1.77 2.20 3.53 4.04 2.67 1.58 1.43 0.99 1.83 2.53 2.32 1.18 0.94 1.15 0.78 0.59 0.35 0.42 0.71 0.91 1.01 0.82 0.64 0.51 0.80 0.73 0.11 0.00 0.00 0.01 0.01 0.02 0.05 0.14 0.08 0.05 0.08 0.06 0.06 0.04 0.06 0.12
1.96 2.70 3.87 5.56 5.56 3.99 2.14 2.11 2.42 2.03 2.24 2.28 1.45 1.35 1.49 1.69 1.33 0.99 1.13 0.98 1.18 0.85 0.72 0.44 0.73 0.72 0.73 0.29 0.05 0.02 0.02 0.02 0.02 0.01 0.01 0.02 0.04 0.04 0.05 0.04 0.05 0.08 0.08 0.03
3.91 5.75 6.90 6.69 3.73 1.88 2.14 3.92 4.27 4.01 2.94 1.98 0.97 0.88 1.56 1.71 1.87 1.60 1.84 1.67 1.00 0.84 0.32 0.42 0.60 0.46 0.25 0.13 0.16 0.04 0.02 0.01 0.01 0.01 0.03 0.04 0.05 0.08 0.08 0.07 0.05 0.03 0.03 0.03
5.76 5.05 3.76 2.95 2.39 2.19 2.99 3.43 2.71 1.95 1.26 0.67 0.30 0.32 1.03 1.48 1.75 1.49 1.54 1.99 1.21 0.62 0.34 0.58 0.55 0.38 0.26 0.23 0.20 0.09 0.03 0.02 0.01 0.01 0.02 0.07 0.12 0.07 0.01 0.01 0.01 0.03 0.05 0.08
2.94 2.22 2.30 2.90 2.82 2.62 2.26 2.07 1.41 0.56 0.18 0.10 0.16 0.21 0.59 1.51 1.77 1.69 1.51 1.19 1.41 0.70 0.48 0.75 0.59 0.27 0.08 0.06 0.07 0.10 0.11 0.07 0.07 0.10 0.09 0.05 0.02 0.03 0.03 0.03 0.05 0.09 0.15 0.23
2.46 2.44 2.81 2.90 2.71 2.11 1.38 0.85 0.48 0.21 0.11 0.12 0.16 0.34 0.42 0.98 1.47 1.76 1.60 1.21 0.95 0.75 0.78 0.43 0.19 0.12 0.09 0.05 0.03 0.04 0.08 0.15 0.07 0.04 0.04 0.04 0.05 0.06 0.08 0.12 0.20 0.26 0.36 0.47
2.91 3.07 2.83 2.20 1.72 1.10 0.65 0.26 0.14 0.12 0.12 0.13 0.15 0.34 0.69 0.92 1.01 1.26 1.51 1.54 0.96 1.06 0.61 0.35 0.30 0.20 0.16 0.13 0.09 0.04 0.04 0.15 0.42 0.26 0.10 0.11 0.14 0.18 0.28 0.38 0.44 0.39 0.50 0.67
2.04 1.33 1.34 1.15 0.83 0.64 0.53 0.31 0.21 0.21 0.22 0.23 0.39 0.67 1.00 1.21 1.37 1.11 0.96 1.28 1.19 0.79 0.61 0.61 0.57 0.28 0.17 0.16 0.18 0.21 0.23 0.25 0.37 0.59 0.61 0.50 0.46 0.47 0.58 0.63 0.61 0.46 0.50 0.55
0.96 0.87 0.97 0.74 0.61 0.74 0.57 0.46 0.46 0.45 0.53 0.65 0.99 1.30 1.25 1.42 1.10 1.08 0.80 0.74 0.65 0.72 0.50 0.46 0.33 0.35 0.33 0.33 0.35 0.44 0.51 0.59 0.69 0.79 0.85 0.88 0.78 0.68 0.79 0.86 0.75 0.74 0.62 0.66
0.75 0.75 0.68 0.56 0.61 0.78 0.67 0.58 0.59 0.57 0.70 0.87 0.97 1.11 1.06 0.99 0.82 0.74 0.56 0.63 0.52 0.43 0.44 0.47 0.43 0.43 0.48 0.54 0.55 0.64 0.61 0.61 0.69 0.78 0.70 0.76 0.78 0.65 0.50 0.59 0.76 0.65 0.62 0.54

GFSNW_prec_precacc_135.txt.gz
Total_Precipitation_Accumulation
0.51 0.49 0.45 0.41 0.43 0.70 1.30 1.42 1.06 0.32 0.29 0.68 0.45 0.15 0.00 0.00 0.00 0.00 0.00 0.00 0.00 0.00 0.01 0.01 0.01 0.02 0.01 0.00 0.00 0.00 0.00 0.03 0.02 0.01 0.02 0.07 0.16 0.34 0.63 0.89 0.59 0.35 0.32 0.13
0.56 0.54 0.56 0.58 0.52 0.88 1.33 1.86 0.87 0.99 0.72 0.77 0.40 0.14 0.05 0.01 0.00 0.00 0.01 0.01 0.01 0.00 0.00 0.04 0.01 0.01 0.00 0.00 0.00 0.04 0.09 0.15 0.15 0.03 0.10 0.15 0.15 0.11 0.25 0.47 0.51 0.38 0.51 0.17
0.71 0.62 0.68 0.64 0.78 1.17 1.91 2.02 1.28 1.48 1.20 0.34 0.22 0.32 0.25 0.10 0.03 0.01 0.02 0.01 0.02 0.05 0.07 0.08 0.10 0.09 0.04 0.03 0.02 0.03 0.18 0.09 0.10 0.09 0.11 0.17 0.09 0.04 0.07 0.20 0.39 0.22 0.20 0.15
0.84 0.78 0.84 0.81 0.94 1.55 3.31 3.16 0.99 0.54 0.67 0.48 0.23 0.17 0.21 0.20 0.15 0.06 0.06 0.06 0.13 0.21 0.19 0.13 0.14 0.16 0.16 0.06 0.05 0.07 0.21 0.21 0.05 0.02 0.01 0.01 0.02 0.01 0.01 0.03 0.08 0.27 0.14 0.17
0.91 0.91 1.10 1.08 1.31 2.26 4.07 3.01 0.69 0.37 0.20 0.17 0.26 0.30 0.18 0.10 0.11 0.27 0.26 0.22 0.16 0.22 0.35 0.40 0.30 0.32 0.45 0.34 0.27 0.34 0.34 0.38 0.17 0.09 0.00 0.00 0.00 0.00 0.00 0.01 0.02 0.02 0.01 0.02
0.93 0.91 1.17 1.34 1.72 3.20 4.71 2.08 0.45 0.55 0.46 0.25 0.28 0.28 0.24 0.21 0.39 0.25 0.22 0.52 0.58 0.30 0.29 0.29 0.17 0.18 0.24 0.34 0.48 0.63 0.67 0.48 0.33 0.16 0.02 0.06 0.09 0.02 0.03 0.14 0.20 0.05 0.06 0.07
0.85 0.90 1.11 1.43 1.82 2.72 2.98 1.23 0.62 1.09 0.77 0.29 0.16 0.08 0.16 0.28 0.24 0.27 0.12 0.15 0.23 0.14 0.13 0.24 0.16 0.13 0.13 0.07 0.21 0.46 0.54 0.58 0.62 0.33 0.22 0.32 0.15 0.04 0.04 0.18 0.12 0.05 0.08 0.05
0.75 0.86 1.07 1.31 1.49 1.83 2.10 1.44 1.01 1.05 0.66 0.22 0.15 0.17 0.18 0.06 0.04 0.05 0.04 0.04 0.07 0.19 0.24 0.47 0.52 0.41 0.34 0.22 0.12 0.06 0.13 0.33 0.64 0.47 0.30 0.16 0.07 0.09 0.13 0.17 0.26 0.19 0.16 0.10
0.71 0.72 0.98 1.07 1.22 1.45 1.86 1.64 1.17 1.36 1.28 0.27 0.13 0.16 0.10 0.10 0.11 0.15 0.12 0.06 0.13 0.38 0.40 0.53 0.54 0.56 0.49 0.46 0.47 0.15 0.13 0.26 0.75 0.62 0.52 0.22 0.19 0.16 0.07 0.13 0.50 0.69 0.38 0.31
0.77 0.65 0.70 0.94 0.98 1.24 1.71 1.87 1.30 1.89 1.70 0.30 0.15 0.34 0.23 0.11 0.18 0.34 0.26 0.32 0.35 0.53 0.64 0.56 0.33 0.22 0.21 0.32 0.71 0.96 0.65 0.77 0.87 0.62 1.04 0.50 0.17 0.07 0.09 0.51 1.08 0.83 0.75 0.93
0.67 0.56 0.58 0.76 0.86 1.06 1.58 1.70 1.33 1.69 1.81 0.50 0.28 0.21 0.23 0.22 0.28 0.40 0.40 0.63 0.61 0.69 0.75 0.47 0.25 0.28 0.27 0.31 0.30 1.03 1.44 1.44 1.06 0.98 1.07 0.69 0.21 0.40 0.85 0.95 0.54 0.68 1.16 1.41
0.63 0.55 0.59 0.63 0.71 0.96 1.60 1.74 1.27 1.34 2.20 1.13 0.48 0.21 0.11 0.13 0.07 0.20 0.30 0.42 0.51 0.89 1.05 0.85 0.58 0.36 0.33 0.24 0.37 0.89 1.28 1.20 1.23 0.92 0.76 0.50 0.36 0.61 0.77 0.66 0.71 0.80 0.73 0.79
0.63 0.59 0.62 0.71 0.70 0.97 1.59 1.56 1.23 1.93 2.92 1.70 0.64 0.28 0.07 0.14 0.08 0.15 0.44 0.14 0.08 0.25 0.63 1.06 0.75 0.53 0.33 0.33 0.36 0.62 0.91 0.94 1.38 0.97 0.63 0.36 0.53 0.40 0.48 0.72 0.69 0.43 0.42 0.41
0.68 0.61 0.65 0.70 0.96 1.15 1.49 1.64 1.60 2.03 2.95 1.81 0.75 0.39 0.24 0.12 0.15 0.06 0.23 0.19 0.25 0.45 0.68 1.20 0.93 0.58 0.28 0.16 0.18 0.31 0.95 0.89 0.91 1.29 1.43 0.90 0.57 0.56 0.54 0.52 0.56 0.58 0.34 0.24
0.70 0.67 0.73 0.97 1.24 1.55 1.91 1.73 1.55 1.63 2.07 1.51 0.65 0.45 0.30 0.27 0.24 0.16 0.25 0.49 0.63 0.91 0.97 0.99 0.53 0.21 0.27 0.18 0.16 0.52 0.32 0.34 0.70 1.14 1.24 1.53 1.12 1.26 0.97 0.70 0.40 0.29 0.17 0.23
0.85 0.84 0.98 1.43 1.75 2.21 3.96 4.73 2.42 1.39 1.61 2.76 1.26 0.52 0.40 0.49 0.44 0.37 0.19 0.30 0.83 1.30 1.32 0.66 0.28 0.15 0.58 0.68 0.27 0.10 0.02 0.14 0.44 0.45 0.57 0.85 1.06 0.74 0.36 0.34 0.39 0.20 0.08 0.07
0.97 1.06 1.44 1.73 2.11 3.14 4.12 2.73 1.55 1.06 1.75 3.66 2.15 0.81 0.47 0.69 0.58 0.44 0.36 0.35 0.62 1.03 1.65 1.12 0.40 0.22 0.84 0.82 0.26 0.07 0.01 0.04 0.10 0.09 0.13 0.25 0.24 0.25 0.18 0.15 0.21 0.13 0.05 0.06
1.30 1.50 1.77 2.20 3.53 4.04 2.67 1.58 1.43 0.99 1.83 2.53 2.32 1.18 0.94 1.15 0.78 0.59 0.35 0.42 0.71 0.91 1.01 0.82 0.64 0.51 0.80 0.73 0.11 0.00 0.00 0.01 0.01 0.02 0.05 0.14 0.08 0.05 0.08 0.06 0.06 0.04 0.06 0.12
1.96 2.70 3.87 5.56 5.56 3.99 2.14 2.11 2.42 2.03 2.24 2.28 1.45 1.35 1.49 1.69 1.33 0.99 1.13 0.98 1.18 0.85 0.72 0.44 0.73 0.72 0.73 0.29 0.05 0.02 0.02 0.02 0.02 0.01 0.01 0.02 0.04 0.04 0.05 0.04 0.05 0.08 0.08 0.03
3.91 5.75 6.90 6.69 3.73 1.88 2.14 3.92 4.27 4.01 2.94 1.98 0.97 0.88 1.56 1.71 1.87 1.60 1.84 1.67 1.00 0.84 0.32 0.42 0.60 0.46 0.25 0.13 0.16 0.04 0.02 0.01 0.01 0.01 0.03 0.04 0.05 0.08 0.08 0.07 0.05 0.03 0.03 0.03
5.76 5.05 3.76 2.95 2.39 2.19 2.99 3.43 2.71 1.95 1.26 0.67 0.30 0.32 1.03 1.48 1.75 1.49 1.54 1.99 1.21 0.63 0.35 0.59 0.56 0.38 0.26 0.23 0.20 0.09 0.03 0.02 0.01 0.01 0.02 0.07 0.12 0.07 0.01 0.01 0.01 0.03 0.05 0.08
2.94 2.22 2.30 2.90 2.82 2.62 2.26 2.07 1.41 0.56 0.18 0.10 0.16 0.21 0.59 1.51 1.77 1.69 1.51 1.19 1.41 0.70 0.49 0.78 0.62 0.31 0.08 0.06 0.07 0.10 0.11 0.07 0.07 0.10 0.09 0.05 0.02 0.03 0.03 0.03 0.05 0.09 0.15 0.23
2.46 2.44 2.81 2.90 2.71 2.11 1.38 0.85 0.48 0.21 0.11 0.12 0.16 0.34 0.42 0.98 1.47 1.76 1.60 1.21 0.95 0.75 0.79 0.44 0.19 0.12 0.09 0.05 0.03 0.04 0.08 0.15 0.07 0.04 0.04 0.04 0.05 0.06 0.08 0.12 0.20 0.26 0.36 0.47
2.91 3.07 2.83 2.20 1.72 1.10 0.65 0.26 0.14 0.12 0.12 0.13 0.15 0.34 0.69 0.92 1.01 1.26 1.51 1.54 0.96 1.06 0.61 0.35 0.30 0.20 0.16 0.13 0.09 0.04 0.04 0.15 0.42 0.26 0.10 0.11 0.14 0.18 0.28 0.38 0.44 0.39 0.50 0.67
2.04 1.33 1.34 1.15 0.83 0.64 0.53 0.31 0.21 0.21 0.22 0.23 0.39 0.67 1.00 1.21 1.37 1.11 0.96 1.28 1.19 0.79 0.61 0.61 0.57 0.28 0.17 0.16 0.18 0.21 0.23 0.25 0.37 0.59 0.61 0.50 0.46 0.47 0.58 0.63 0.61 0.46 0.50 0.55
0.96 0.87 0.97 0.74 0.61 0.74 0.57 0.46 0.46 0.45 0.53 0.65 0.99 1.30 1.25 1.42 1.10 1.08 0.80 0.75 0.65 0.72 0.51 0.48 0.36 0.36 0.33 0.33 0.35 0.44 0.51 0.59 0.69 0.79 0.85 0.88 0.78 0.68 0.79 0.86 0.75 0.74 0.62 0.66
0.75 0.75 0.68 0.56 0.61 0.78 0.67 0.58 0.59 0.57 0.70 0.87 0.98 1.11 1.06 0.99 0.82 0.75 0.56 0.63 0.52 0.43 0.45 0.51 0.47 0.44 0.48 0.54 0.55 0.64 0.61 0.61 0.69 0.78 0.70 0.76 0.78 0.65 0.50 0.59 0.76 0.65 0.62 0.55

GFSNW_prec_precacc_138.txt.gz
Total_Precipitation_Accumulation
0.65 0.60 0.56 0.44 0.44 0.71 1.31 1.44 1.07 0.32 0.29 0.68 0.45 0.15 0.00 0.00 0.00 0.00 0.00 0.00 0.00 0.00 0.01 0.01 0.01 0.02 0.01 0.00 0.00 0.00 0.00 0.03 0.02 0.01 0.02 0.07 0.16 0.34 0.64 0.93 0.65 0.41 0.40 0.16
0.66 0.68 0.67 0.59 0.53 0.88 1.33 1.87 0.87 0.99 0.72 0.77 0.40 0.14 0.05 0.01 0.00 0.00 0.01 0.01 0.01 0.00 0.00 0.04 0.01 0.01 0.00 0.00 0.00 0.04 0.09 0.15 0.15 0.03 0.10 0.15 0.15 0.11 0.25 0.49 0.57 0.39 0.52 0.18
0.77 0.72 0.77 0.66 0.78 1.17 1.91 2.03 1.30 1.48 1.20 0.34 0.22 0.32 0.26 0.11 0.03 0.01 0.02 0.01 0.02 0.05 0.07 0.08 0.10 0.09 0.04 0.03 0.02 0.03 0.18 0.09 0.10 0.09 0.11 0.17 0.09 0.04 0.07 0.20 0.40 0.22 0.20 0.15
0.88 0.85 0.94 0.83 0.95 1.55 3.31 3.16 1.00 0.54 0.67 0.48 0.23 0.17 0.21 0.21 0.15 0.06 0.06 0.06 0.13 0.21 0.19 0.13 0.14 0.16 0.16 0.06 0.05 0.07 0.21 0.21 0.05 0.02 0.01 0.01 0.02 0.01 0.01 0.03 0.09 0.28 0.14 0.19
0.96 0.97 1.14 1.09 1.31 2.26 4.08 3.01 0.69 0.37 0.20 0.17 0.27 0.30 0.18 0.10 0.11 0.27 0.26 0.22 0.16 0.22 0.35 0.40 0.30 0.32 0.45 0.34 0.27 0.34 0.34 0.38 0.17 0.09 0.00 0.00 0.00 0.00 0.01 0.01 0.02 0.03 0.04 0.04
1.01 0.96 1.19 1.36 1.72 3.20 4.71 2.08 0.45 0.55 0.46 0.26 0.29 0.28 0.25 0.21 0.39 0.25 0.22 0.52 0.58 0.30 0.29 0.29 0.17 0.18 0.24 0.34 0.48 0.63 0.67 0.48 0.33 0.16 0.02 0.06 0.10 0.02 0.03 0.15 0.24 0.18 0.11 0.08
0.91 0.97 1.15 1.43 1.82 2.72 2.98 1.23 0.62 1.09 0.77 0.30 0.16 0.08 0.17 0.29 0.24 0.27 0.12 0.15 0.23 0.14 0.13 0.24 0.16 0.13 0.13 0.07 0.21 0.46 0.54 0.59 0.63 0.33 0.22 0.32 0.15 0.04 0.04 0.20 0.13 0.06 0.09 0.06
0.77 0.90 1.08 1.31 1.49 1.83 2.10 1.44 1.01 1.05 0.67 0.23 0.15 0.17 0.18 0.06 0.04 0.05 0.04 0.04 0.07 0.19 0.24 0.47 0.52 0.41 0.34 0.22 0.12 0.06 0.13 0.33 0.65 0.47 0.31 0.17 0.07 0.09 0.13 0.18 0.30 0.20 0.17 0.11
0.71 0.72 0.98 1.07 1.22 1.45 1.86 1.64 1.17 1.36 1.28 0.27 0.13 0.16 0.10 0.10 0.11 0.15 0.12 0.06 0.13 0.38 0.40 0.53 0.54 0.56 0.49 0.46 0.47 0.15 0.13 0.26 0.75 0.62 0.52 0.23 0.19 0.16 0.07 0.15 0.52 0.69 0.38 0.32
0.77 0.65 0.70 0.94 0.98 1.24 1.71 1.87 1.30 1.89 1.70 0.30 0.15 0.34 0.23 0.11 0.18 0.34 0.26 0.32 0.35 0.53 0.64 0.56 0.33 0.22 0.21 0.32 0.71 0.96 0.65 0.77 0.87 0.62 1.04 0.50 0.17 0.07 0.09 0.51 1.09 0.84 0.76 0.95
0.67 0.56 0.58 0.76 0.86 1.06 1.58 1.70 1.33 1.69 1.81 0.50 0.28 0.21 0.23 0.22 0.28 0.40 0.40 0.63 0.61 0.69 0.75 0.47 0.25 0.28 0.27 0.31 0.30 1.03 1.44 1.44 1.06 0.98 1.07 0.69 0.21 0.40 0.86 0.96 0.55 0.72 1.20 1.44
0.63 0.55 0.59 0.63 0.71 0.96 1.60 1.74 1.27 1.34 2.20 1.13 0.48 0.21 0.11 0.13 0.07 0.20 0.30 0.42 0.51 0.89 1.05 0.85 0.58 0.36 0.33 0.24 0.37 0.89 1.28 1.20 1.23 0.92 0.76 0.50 0.36 0.61 0.77 0.67 0.72 0.84 0.75 0.79
0.63 0.59 0.62 0.71 0.70 0.97 1.59 1.56 1.23 1.93 2.92 1.70 0.64 0.28 0.07 0.14 0.08 0.15 0.44 0.14 0.08 0.25 0.63 1.06 0.75 0.53 0.33 0.33 0.36 0.62 0.91 0.94 1.38 0.97 0.63 0.36 0.53 0.40 0.48 0.72 0.69 0.44 0.42 0.41
0.68 0.61 0.65 0.70 0.96 1.15 1.49 1.64 1.60 2.03 2.95 1.81 0.75 0.39 0.24 0.12 0.15 0.06 0.23 0.19 0.25 0.45 0.68 1.20 0.93 0.58 0.28 0.16 0.18 0.31 0.95 0.89 0.91 1.29 1.43 0.90 0.58 0.56 0.54 0.52 0.56 0.58 0.34 0.24
0.70 0.67 0.73 0.97 1.24 1.55 1.91 1.73 1.55 1.63 2.07 1.51 0.65 0.45 0.30 0.27 0.24 0.16 0.25 0.49 0.63 0.91 0.97 0.99 0.53 0.21 0.27 0.18 0.16 0.52 0.32 0.34 0.70 1.14 1.24 1.53 1.12 1.26 0.97 0.70 0.40 0.29 0.17 0.23
0.85 0.84 0.98 1.43 1.75 2.21 3.96 4.73 2.42 1.39 1.61 2.76 1.26 0.52 0.40 0.49 0.44 0.37 0.19 0.30 0.83 1.30 1.32 0.66 0.28 0.15 0.58 0.68 0.27 0.10 0.02 0.14 0.44 0.45 0.57 0.85 1.06 0.74 0.36 0.34 0.39 0.20 0.08 0.07
0.97 1.06 1.44 1.73 2.11 3.14 4.12 2.73 1.55 1.06 1.75 3.66 2.15 0.81 0.47 0.69 0.58 0.44 0.36 0.35 0.62 1.03 1.65 1.12 0.40 0.22 0.84 0.82 0.26 0.07 0.01 0.04 0.10 0.09 0.13 0.25 0.24 0.25 0.18 0.15 0.21 0.13 0.05 0.06
1.30 1.50 1.77 2.20 3.53 4.04 2.67 1.58 1.43 0.99 1.83 2.53 2.32 1.18 0.94 1.15 0.78 0.59 0.35 0.42 0.71 0.91 1.01 0.82 0.64 0.51 0.80 0.73 0.11 0.00 0.00 0.01 0.01 0.02 0.05 0.14 0.08 0.05 0.08 0.06 0.06 0.04 0.06 0.12
1.96 2.70 3.87 5.56 5.56 3.99 2.14 2.11 2.42 2.03 2.24 2.28 1.45 1.35 1.49 1.69 1.33 0.99 1.13 0.98 1.18 0.85 0.72 0.44 0.73 0.72 0.73 0.29 0.05 0.02 0.02 0.02 0.02 0.01 0.01 0.02 0.04 0.04 0.05 0.04 0.05 0.08 0.08 0.03
3.91 5.75 6.90 6.69 3.73 1.88 2.14 3.92 4.27 4.01 2.94 1.98 0.97 0.88 1.56 1.71 1.87 1.60 1.84 1.67 1.00 0.84 0.32 0.42 0.60 0.46 0.25 0.13 0.16 0.04 0.02 0.01 0.01 0.01 0.03 0.04 0.05 0.08 0.08 0.07 0.05 0.03 0.03 0.03
5.76 5.05 3.76 2.95 2.39 2.19 2.99 3.43 2.71 1.95 1.26 0.67 0.30 0.32 1.03 1.48 1.75 1.49 1.54 1.99 1.21 0.63 0.35 0.59 0.56 0.38 0.26 0.23 0.20 0.09 0.03 0.02 0.01 0.01 0.02 0.07 0.12 0.07 0.01 0.01 0.01 0.03 0.05 0.08
2.94 2.22 2.30 2.90 2.82 2.62 2.26 2.07 1.41 0.56 0.18 0.10 0.16 0.21 0.59 1.51 1.77 1.69 1.51 1.19 1.41 0.71 0.50 0.80 0.63 0.31 0.08 0.06 0.07 0.10 0.11 0.07 0.07 0.10 0.09 0.05 0.02 0.03 0.03 0.03 0.05 0.09 0.15 0.23
2.46 2.44 2.81 2.90 2.71 2.11 1.38 0.85 0.48 0.21 0.11 0.12 0.16 0.34 0.42 0.98 1.47 1.76 1.60 1.21 0.95 0.76 0.80 0.44 0.19 0.12 0.09 0.05 0.03 0.04 0.08 0.15 0.07 0.04 0.04 0.04 0.05 0.06 0.08 0.12 0.20 0.26 0.36 0.47
2.91 3.07 2.83 2.20 1.72 1.10 0.65 0.26 0.14 0.12 0.12 0.13 0.15 0.34 0.69 0.92 1.01 1.26 1.51 1.54 0.96 1.06 0.62 0.35 0.30 0.20 0.16 0.13 0.09 0.04 0.04 0.15 0.42 0.26 0.10 0.11 0.14 0.18 0.28 0.38 0.44 0.39 0.50 0.67
2.04 1.33 1.34 1.15 0.83 0.64 0.53 0.31 0.21 0.21 0.22 0.23 0.39 0.67 1.00 1.21 1.37 1.11 0.96 1.28 1.19 0.80 0.61 0.61 0.57 0.28 0.17 0.16 0.18 0.21 0.23 0.25 0.37 0.59 0.61 0.50 0.46 0.47 0.58 0.63 0.61 0.46 0.51 0.55
0.96 0.87 0.97 0.75 0.61 0.74 0.58 0.46 0.46 0.45 0.53 0.65 0.99 1.30 1.25 1.42 1.10 1.08 0.80 0.75 0.65 0.72 0.51 0.48 0.37 0.39 0.35 0.34 0.35 0.44 0.51 0.59 0.69 0.79 0.85 0.88 0.78 0.68 0.79 0.86 0.75 0.74 0.62 0.66
0.75 0.75 0.68 0.56 0.61 0.78 0.67 0.58 0.59 0.57 0.70 0.87 0.98 1.11 1.06 0.99 0.82 0.75 0.56 0.63 0.52 0.43 0.45 0.52 0.48 0.45 0.49 0.54 0.55 0.64 0.61 0.61 0.69 0.78 0.70 0.76 0.78 0.65 0.50 0.59 0.76 0.65 0.62 0.55

GFSNW_prec_precacc_141.txt.gz
Total_Precipitation_Accumulation
0.67 0.65 0.68 0.62 0.56 0.83 1.36 1.45 1.12 0.34 0.30 0.70 0.45 0.15 0.00 0.00 0.00 0.00 0.00 0.00 0.00 0.00 0.01 0.01 0.01 0.02 0.01 0.00 0.00 0.00 0.00 0.03 0.02 0.01 0.02 0.07 0.16 0.34 0.64 0.93 0.65 0.43 0.42 0.17
0.69 0.76 0.79 0.78 0.74 1.01 1.45 1.89 0.93 1.03 0.73 0.79 0.41 0.14 0.05 0.01 0.00 0.00 0.01 0.01 0.01 0.00 0.00 0.04 0.01 0.01 0.00 0.00 0.00 0.04 0.09 0.15 0.15 0.03 0.10 0.15 0.15 0.11 0.25 0.49 0.58 0.40 0.52 0.18
0.82 0.80 0.92 0.88 0.97 1.31 2.03 2.09 1.37 1.55 1.21 0.34 0.22 0.32 0.26 0.11 0.03 0.01 0.02 0.01 0.02 0.05 0.07 0.08 0.10 0.09 0.04 0.03 0.02 0.03 0.18 0.09 0.10 0.09 0.11 0.17 0.09 0.04 0.07 0.20 0.41 0.22 0.20 0.15
0.93 0.92 1.04 1.01 1.11 1.69 3.41 3.21 1.00 0.55 0.68 0.48 0.23 0.17 0.21 0.21 0.15 0.06 0.06 0.07 0.13 0.21 0.19 0.13 0.14 0.16 0.16 0.06 0.05 0.07 0.21 0.21 0.05 0.02 0.01 0.01 0.02 0.01 0.01 0.03 0.09 0.30 0.15 0.20
1.01 1.02 1.21 1.27 1.45 2.38 4.16 3.04 0.69 0.37 0.20 0.18 0.28 0.31 0.18 0.11 0.11 0.28 0.27 0.22 0.17 0.23 0.35 0.40 0.30 0.32 0.45 0.34 0.27 0.34 0.34 0.38 0.17 0.09 0.00 0.00 0.00 0.00 0.01 0.02 0.03 0.03 0.04 0.07
1.05 1.00 1.24 1.43 1.86 3.26 4.75 2.09 0.45 0.55 0.46 0.26 0.30 0.29 0.25 0.21 0.39 0.25 0.22 0.52 0.58 0.30 0.29 0.29 0.17 0.18 0.24 0.34 0.48 0.63 0.67 0.48 0.33 0.16 0.02 0.06 0.10 0.02 0.03 0.15 0.24 0.18 0.14 0.10
0.94 1.00 1.19 1.48 1.85 2.76 2.99 1.23 0.62 1.09 0.77 0.30 0.16 0.09 0.18 0.30 0.25 0.27 0.12 0.15 0.23 0.14 0.13 0.24 0.16 0.13 0.13 0.07 0.21 0.46 0.54 0.59 0.63 0.33 0.22 0.32 0.15 0.04 0.04 0.20 0.13 0.06 0.10 0.06
0.81 0.97 1.16 1.36 1.51 1.84 2.10 1.44 1.01 1.05 0.67 0.23 0.15 0.18 0.18 0.07 0.04 0.05 0.04 0.04 0.07 0.19 0.24 0.47 0.52 0.41 0.34 0.22 0.12 0.06 0.13 0.33 0.65 0.48 0.31 0.17 0.07 0.09 0.13 0.18 0.31 0.20 0.17 0.11
0.77 0.79 1.07 1.12 1.25 1.46 1.86 1.64 1.17 1.36 1.28 0.28 0.13 0.16 0.10 0.10 0.11 0.15 0.12 0.06 0.13 0.38 0.40 0.53 0.54 0.56 0.49 0.46 0.47 0.15 0.13 0.26 0.75 0.63 0.53 0.23 0.19 0.16 0.07 0.16 0.54 0.71 0.39 0.34
0.84 0.71 0.76 1.00 1.01 1.25 1.71 1.87 1.30 1.89 1.70 0.30 0.15 0.34 0.23 0.11 0.18 0.34 0.26 0.32 0.35 0.53 0.64 0.56 0.33 0.22 0.21 0.32 0.71 0.96 0.65 0.77 0.87 0.62 1.04 0.50 0.17 0.07 0.09 0.51 1.10 0.86 0.78 0.98
0.74 0.59 0.62 0.79 0.86 1.06 1.58 1.70 1.33 1.69 1.81 0.50 0.28 0.21 0.23 0.22 0.28 0.40 0.40 0.63 0.61 0.69 0.75 0.47 0.25 0.28 0.27 0.31 0.30 1.03 1.44 1.44 1.06 0.98 1.07 0.69 0.21 0.40 0.86 0.96 0.56 0.73 1.24 1.46
0.64 0.56 0.59 0.63 0.71 0.96 1.60 1.74 1.27 1.34 2.20 1.13 0.48 0.21 0.11 0.13 0.07 0.20 0.30 0.42 0.51 0.89 1.05 0.85 0.58 0.36 0.33 0.24 0.37 0.89 1.28 1.20 1.23 0.92 0.76 0.50 0.36 0.61 0.77 0.67 0.73 0.85 0.76 0.79
0.63 0.59 0.62 0.71 0.70 0.97 1.59 1.56 1.23 1.93 2.92 1.70 0.64 0.28 0.07 0.14 0.08 0.15 0.44 0.14 0.08 0.25 0.63 1.06 0.75 0.53 0.33 0.33 0.36 0.62 0.91 0.94 1.38 0.97 0.63 0.36 0.53 0.40 0.48 0.72 0.69 0.44 0.42 0.41
0.68 0.61 0.65 0.70 0.96 1.15 1.49 1.64 1.60 2.03 2.95 1.81 0.75 0.39 0.24 0.12 0.15 0.06 0.23 0.19 0.25 0.45 0.68 1.20 0.93 0.58 0.28 0.16 0.18 0.31 0.95 0.89 0.91 1.29 1.43 0.90 0.58 0.56 0.54 0.52 0.56 0.58 0.34 0.24
0.70 0.67 0.73 0.97 1.24 1.55 1.91 1.73 1.55 1.63 2.07 1.51 0.65 0.45 0.30 0.27 0.24 0.16 0.25 0.49 0.63 0.91 0.97 0.99 0.53 0.21 0.27 0.18 0.16 0.52 0.32 0.34 0.70 1.14 1.24 1.53 1.12 1.26 0.97 0.70 0.40 0.29 0.17 0.23
0.85 0.84 0.98 1.43 1.75 2.21 3.96 4.73 2.42 1.39 1.61 2.76 1.26 0.52 0.40 0.49 0.44 0.37 0.19 0.30 0.83 1.30 1.32 0.66 0.28 0.15 0.58 0.68 0.27 0.10 0.02 0.14 0.44 0.45 0.57 0.85 1.06 0.74 0.36 0.34 0.39 0.20 0.08 0.07
0.97 1.06 1.44 1.73 2.11 3.14 4.12 2.73 1.55 1.06 1.75 3.66 2.15 0.81 0.47 0.69 0.58 0.44 0.36 0.35 0.62 1.03 1.65 1.12 0.40 0.22 0.84 0.82 0.26 0.07 0.01 0.04 0.10 0.09 0.13 0.25 0.24 0.25 0.18 0.15 0.21 0.13 0.05 0.06
1.30 1.50 1.77 2.20 3.53 4.04 2.67 1.58 1.43 0.99 1.83 2.53 2.32 1.18 0.94 1.15 0.78 0.59 0.35 0.42 0.71 0.91 1.01 0.82 0.64 0.51 0.80 0.73 0.11 0.00 0.00 0.01 0.01 0.02 0.05 0.14 0.08 0.05 0.08 0.06 0.06 0.04 0.06 0.12
1.96 2.70 3.87 5.56 5.56 3.99 2.14 2.11 2.42 2.03 2.24 2.28 1.45 1.35 1.49 1.69 1.33 0.99 1.13 0.98 1.18 0.85 0.72 0.44 0.73 0.72 0.73 0.29 0.05 0.02 0.02 0.02 0.02 0.01 0.01 0.02 0.04 0.04 0.05 0.04 0.05 0.08 0.08 0.03
3.91 5.75 6.90 6.69 3.73 1.88 2.14 3.92 4.27 4.01 2.94 1.98 0.97 0.88 1.56 1.71 1.87 1.60 1.84 1.67 1.00 0.84 0.32 0.42 0.60 0.46 0.25 0.13 0.16 0.04 0.02 0.01 0.01 0.01 0.03 0.04 0.05 0.08 0.08 0.07 0.05 0.03 0.03 0.03
5.76 5.05 3.76 2.95 2.39 2.19 2.99 3.43 2.71 1.95 1.26 0.67 0.30 0.32 1.03 1.48 1.75 1.49 1.54 1.99 1.21 0.63 0.35 0.59 0.56 0.38 0.26 0.23 0.20 0.09 0.03 0.02 0.01 0.01 0.02 0.07 0.12 0.07 0.01 0.01 0.01 0.03 0.05 0.08
2.94 2.22 2.30 2.90 2.82 2.62 2.26 2.07 1.41 0.56 0.18 0.10 0.16 0.21 0.59 1.51 1.77 1.69 1.51 1.19 1.41 0.71 0.50 0.81 0.63 0.31 0.08 0.06 0.07 0.10 0.11 0.07 0.07 0.10 0.09 0.05 0.02 0.03 0.03 0.03 0.05 0.09 0.15 0.23
2.46 2.44 2.81 2.90 2.71 2.11 1.38 0.85 0.48 0.21 0.11 0.12 0.16 0.34 0.42 0.98 1.47 1.76 1.60 1.21 0.95 0.76 0.80 0.45 0.19 0.12 0.09 0.05 0.03 0.04 0.08 0.15 0.07 0.04 0.04 0.04 0.05 0.06 0.08 0.12 0.20 0.26 0.36 0.47
2.91 3.07 2.83 2.20 1.72 1.10 0.65 0.26 0.14 0.12 0.12 0.13 0.15 0.34 0.69 0.92 1.01 1.26 1.51 1.54 0.96 1.06 0.62 0.35 0.30 0.20 0.16 0.13 0.09 0.04 0.04 0.15 0.42 0.26 0.10 0.11 0.14 0.18 0.28 0.38 0.44 0.39 0.50 0.67
2.04 1.33 1.34 1.15 0.83 0.64 0.53 0.31 0.21 0.21 0.22 0.23 0.39 0.67 1.00 1.21 1.37 1.11 0.96 1.28 1.19 0.80 0.61 0.61 0.57 0.28 0.17 0.16 0.18 0.21 0.23 0.25 0.37 0.59 0.61 0.50 0.46 0.47 0.58 0.63 0.61 0.46 0.51 0.55
0.96 0.87 0.97 0.75 0.61 0.74 0.58 0.46 0.46 0.45 0.53 0.65 0.99 1.30 1.25 1.42 1.10 1.08 0.80 0.75 0.65 0.72 0.51 0.48 0.37 0.39 0.36 0.34 0.35 0.44 0.51 0.59 0.69 0.79 0.85 0.88 0.78 0.68 0.79 0.86 0.75 0.74 0.62 0.66
0.75 0.76 0.69 0.56 0.61 0.78 0.68 0.58 0.59 0.57 0.70 0.87 0.98 1.11 1.06 0.99 0.82 0.75 0.56 0.63 0.52 0.43 0.45 0.52 0.48 0.45 0.49 0.54 0.55 0.64 0.61 0.61 0.69 0.78 0.70 0.76 0.78 0.65 0.50 0.59 0.76 0.65 0.62 0.55